• In Schweiz
  • Länderverzeichnis
  • Für 7 Tage
  • Wassertemperatur
  • Satellitenkarten
  • Wetterkarte
  • Widgets
  • user-avatar
    Anmelden

    Stündliche Wetter Kinshasa

    Heute, 16 November, Freitag

    Zeit Temperatur Niederschläge Wind Luftdruck Luftfeuchtigkeit
    00:00 +24°C° 0 mm 1 m/S 707 mmHg 81%
    01:00 +23°C° 0 mm 1 m/S 707 mmHg 84%
    02:00 +23°C° 0 mm 1 m/S 706 mmHg 87%
    03:00 +23°C° 0 mm 1 m/S 706 mmHg 89%
    04:00 +22°C° 0 mm 1 m/S 706 mmHg 91%
    05:00 +23°C° 0 mm 1 m/S 707 mmHg 89%
    06:00 +23°C° 0 mm 1 m/S 707 mmHg 86%
    07:00 +24°C° 0 mm 2 m/S 708 mmHg 84%
    08:00 +26°C° 0 mm 2 m/S 708 mmHg 76%
    09:00 +28°C° 0 mm 2 m/S 709 mmHg 68%
    10:00 +30°C° 0 mm 2 m/S 709 mmHg 60%
    11:00 +31°C° 0 mm 2 m/S 708 mmHg 54%
    12:00 +32°C° 0 mm 2 m/S 708 mmHg 48%
    13:00 +34°C° 0 mm 1 m/S 707 mmHg 43%
    14:00 +33°C° 0 mm 1 m/S 707 mmHg 43%
    15:00 +33°C° 0 mm 1 m/S 706 mmHg 44%
    16:00 +33°C° 0 mm 1 m/S 706 mmHg 44%
    17:00 +31°C° 0 mm 1 m/S 706 mmHg 50%
    18:00 +29°C° 0 mm 1 m/S 706 mmHg 57%
    19:00 +27°C° 0 mm 1 m/S 706 mmHg 63%
    20:00 +26°C° 0 mm 1 m/S 707 mmHg 67%
    21:00 +25°C° 0 mm 1 m/S 707 mmHg 71%
    22:00 +25°C° 0 mm 1 m/S 708 mmHg 75%
    23:00 +24°C° 0.1 mm 1 m/S 708 mmHg 80%

    Morgen, 17 November, Samstag

    Zeit Temperatur Niederschläge Wind Luftdruck Luftfeuchtigkeit
    00:00 +24°C° 0.1 mm 1 m/S 708 mmHg 85%
    01:00 +23°C° 0.1 mm 1 m/S 708 mmHg 90%
    02:00 +23°C° 0 mm 1 m/S 708 mmHg 92%
    03:00 +20°C° 0 mm 0 m/S 708 mmHg 94%
    04:00 +20°C° 0 mm 0 m/S 707 mmHg 96%
    05:00 +21°C° 0 mm 0 m/S 708 mmHg 94%
    06:00 +23°C° 0 mm 1 m/S 708 mmHg 92%
    07:00 +24°C° 0 mm 1 m/S 709 mmHg 91%
    08:00 +26°C° 0 mm 1 m/S 709 mmHg 80%
    09:00 +28°C° 0 mm 1 m/S 709 mmHg 70%
    10:00 +31°C° 0 mm 1 m/S 709 mmHg 59%
    11:00 +32°C° 0 mm 1 m/S 709 mmHg 54%
    12:00 +33°C° 0 mm 1 m/S 708 mmHg 48%
    13:00 +35°C° 0 mm 1 m/S 707 mmHg 43%
    14:00 +34°C° 0 mm 1 m/S 707 mmHg 44%
    15:00 +34°C° 0 mm 1 m/S 706 mmHg 45%
    16:00 +33°C° 0 mm 1 m/S 706 mmHg 46%
    17:00 +31°C° 0 mm 1 m/S 706 mmHg 52%
    18:00 +29°C° 0 mm 1 m/S 706 mmHg 58%
    19:00 +25°C° 0 mm 0 m/S 706 mmHg 64%
    20:00 +25°C° 0 mm 0 m/S 707 mmHg 65%
    21:00 +24°C° 0 mm 0 m/S 707 mmHg 67%
    22:00 +24°C° 0 mm 0 m/S 708 mmHg 68%
    23:00 +24°C° 0 mm 0 m/S 707 mmHg 70%

    übermorgen, 18 November, Sonntag

    Zeit Temperatur Niederschläge Wind Luftdruck Luftfeuchtigkeit
    00:00 +23°C° 0 mm 0 m/S 707 mmHg 71%
    01:00 +23°C° 0 mm 0 m/S 707 mmHg 73%
    02:00 +24°C° 0.4 mm 1 m/S 707 mmHg 78%
    03:00 +24°C° 0.4 mm 1 m/S 706 mmHg 83%
    04:00 +23°C° 0.4 mm 1 m/S 706 mmHg 87%
    05:00 +23°C° 0.5 mm 1 m/S 707 mmHg 87%
    06:00 +22°C° 0.5 mm 0 m/S 707 mmHg 86%
    07:00 +22°C° 0.5 mm 0 m/S 708 mmHg 86%
    08:00 +24°C° 0.5 mm 0 m/S 708 mmHg 78%
    09:00 +29°C° 0.5 mm 1 m/S 709 mmHg 71%
    10:00 +31°C° 0.5 mm 1 m/S 709 mmHg 64%
    11:00 +32°C° 0 mm 1 m/S 709 mmHg 57%
    12:00 +34°C° 0 mm 1 m/S 708 mmHg 51%
    13:00 +36°C° 0 mm 1 m/S 707 mmHg 45%
    14:00 +35°C° 0 mm 1 m/S 706 mmHg 47%
    15:00 +34°C° 0 mm 1 m/S 706 mmHg 50%
    16:00 +33°C° 0 mm 1 m/S 705 mmHg 52%
    17:00 +31°C° 0 mm 1 m/S 705 mmHg 58%
    18:00 +29°C° 0 mm 1 m/S 705 mmHg 65%
    19:00 +27°C° 0 mm 1 m/S 705 mmHg 71%
    20:00 +27°C° 0.7 mm 1 m/S 706 mmHg 77%
    21:00 +26°C° 0.7 mm 1 m/S 706 mmHg 82%
    22:00 +23°C° 0.7 mm 0 m/S 707 mmHg 88%
    23:00 +24°C° 0.9 mm 1 m/S 707 mmHg 91%

    19 November, Montag

    Zeit Temperatur Niederschläge Wind Luftdruck Luftfeuchtigkeit
    00:00 +24°C° 0.9 mm 1 m/S 706 mmHg 93%
    01:00 +24°C° 0.9 mm 1 m/S 706 mmHg 96%
    02:00 +23°C° 0.1 mm 1 m/S 706 mmHg 95%
    03:00 +21°C° 0.1 mm 0 m/S 706 mmHg 95%
    04:00 +21°C° 0.1 mm 0 m/S 705 mmHg 95%
    05:00 +22°C° 0 mm 0 m/S 706 mmHg 94%
    06:00 +24°C° 0 mm 1 m/S 707 mmHg 93%
    07:00 +24°C° 0 mm 1 m/S 707 mmHg 92%
    08:00 +27°C° 0 mm 1 m/S 707 mmHg 82%
    09:00 +29°C° 0 mm 1 m/S 708 mmHg 73%
    10:00 +31°C° 0 mm 2 m/S 708 mmHg 63%
    11:00 +33°C° 0 mm 1 m/S 707 mmHg 57%
    12:00 +34°C° 0 mm 1 m/S 706 mmHg 52%
    13:00 +36°C° 0 mm 1 m/S 706 mmHg 46%
    14:00 +32°C° 0.1 mm 0 m/S 705 mmHg 50%
    15:00 +31°C° 0.1 mm 0 m/S 705 mmHg 54%
    16:00 +30°C° 0.1 mm 0 m/S 704 mmHg 58%
    17:00 +30°C° 2.2 mm 1 m/S 704 mmHg 68%
    18:00 +28°C° 2.2 mm 1 m/S 705 mmHg 78%
    19:00 +25°C° 2.2 mm 2 m/S 705 mmHg 88%
    20:00 +25°C° 1.6 mm 1 m/S 706 mmHg 90%
    21:00 +25°C° 1.6 mm 1 m/S 706 mmHg 91%
    22:00 +24°C° 1.6 mm 1 m/S 707 mmHg 93%
    23:00 +24°C° 0 mm 1 m/S 706 mmHg 93%

    20 November, Dienstag

    Zeit Temperatur Niederschläge Wind Luftdruck Luftfeuchtigkeit
    00:00 +24°C° 0 mm 1 m/S 706 mmHg 93%
    01:00 +23°C° 0 mm 1 m/S 706 mmHg 94%
    02:00 +23°C° 0 mm 1 m/S 705 mmHg 94%
    03:00 +23°C° 0 mm 1 m/S 705 mmHg 95%
    04:00 +23°C° 0 mm 1 m/S 705 mmHg 95%
    05:00 +23°C° 0.5 mm 1 m/S 706 mmHg 95%
    06:00 +23°C° 0.5 mm 1 m/S 707 mmHg 94%
    07:00 +23°C° 0.5 mm 1 m/S 707 mmHg 94%
    08:00 +26°C° 0 mm 2 m/S 708 mmHg 85%
    09:00 +28°C° 0 mm 2 m/S 708 mmHg 76%
    10:00 +30°C° 0 mm 2 m/S 708 mmHg 67%
    11:00 +31°C° 0.1 mm 2 m/S 708 mmHg 62%
    12:00 +32°C° 0.1 mm 2 m/S 707 mmHg 58%
    13:00 +34°C° 0.1 mm 2 m/S 706 mmHg 53%
    14:00 +33°C° 0.1 mm 1 m/S 706 mmHg 54%
    15:00 +33°C° 0.1 mm 1 m/S 705 mmHg 54%
    16:00 +32°C° 0.1 mm 1 m/S 705 mmHg 55%
    17:00 +30°C° 0.5 mm 1 m/S 705 mmHg 64%
    18:00 +28°C° 0.5 mm 1 m/S 706 mmHg 72%
    19:00 +26°C° 0.5 mm 1 m/S 706 mmHg 81%
    20:00 +25°C° 0 mm 1 m/S 706 mmHg 84%
    21:00 +25°C° 0 mm 1 m/S 706 mmHg 88%
    22:00 +24°C° 0 mm 1 m/S 707 mmHg 92%
    23:00 +24°C° 0 mm 1 m/S 706 mmHg 92%

    21 November, Mittwoch

    Zeit Temperatur Niederschläge Wind Luftdruck Luftfeuchtigkeit
    00:00 +23°C° 0 mm 1 m/S 706 mmHg 93%
    01:00 +23°C° 0 mm 1 m/S 706 mmHg 93%
    02:00 +23°C° 0 mm 1 m/S 706 mmHg 94%
    03:00 +23°C° 0 mm 1 m/S 706 mmHg 94%
    04:00 +22°C° 0 mm 1 m/S 706 mmHg 95%
    05:00 +23°C° 0 mm 1 m/S 706 mmHg 93%
    06:00 +24°C° 0 mm 1 m/S 707 mmHg 90%
    07:00 +24°C° 0 mm 2 m/S 707 mmHg 88%
    08:00 +26°C° 0 mm 2 m/S 707 mmHg 78%
    09:00 +29°C° 0 mm 2 m/S 708 mmHg 68%
    10:00 +31°C° 0 mm 1 m/S 708 mmHg 59%
    11:00 +33°C° 0 mm 1 m/S 707 mmHg 53%
    12:00 +34°C° 0 mm 1 m/S 706 mmHg 48%
    13:00 +36°C° 0 mm 1 m/S 705 mmHg 42%
    14:00 +35°C° 0 mm 1 m/S 705 mmHg 43%
    15:00 +35°C° 0 mm 1 m/S 705 mmHg 44%
    16:00 +34°C° 0 mm 1 m/S 704 mmHg 45%
    17:00 +32°C° 0 mm 1 m/S 704 mmHg 51%
    18:00 +30°C° 0 mm 1 m/S 705 mmHg 58%
    19:00 +28°C° 0 mm 1 m/S 705 mmHg 64%
    20:00 +27°C° 0 mm 1 m/S 705 mmHg 67%
    21:00 +27°C° 0 mm 1 m/S 706 mmHg 70%
    22:00 +26°C° 0 mm 1 m/S 706 mmHg 73%
    23:00 +25°C° 0 mm 1 m/S 706 mmHg 78%
    Mehr zeigen